Showing default

CRYOSAT 2, 36508

Orbit data source: Space-Track

CRYOSAT 2, 36508 is a payload satellite owned by ESA (ESA) in LEO that was launched on Thu, 08 Apr 2010 UTC via a DNEPR launch vehicle from the Tyuratam Missile And Space Complex (TTMTR). Payload-class satellites include a variety of spacecraft equipped with specific instruments for various scientific and technological missions. These include communications satellites like Starlink; space stations such as the ISS; scientific satellites like the Hubble; Earth observation satellites from companies like Planet Labs, Umbra, and HawkEye 360; GPS; miniature CubeSats for education and research; and military/defense satellites.

Loading next visibility...
Identifier
36508, 2010-013A
Orbit
LEO
Country
Flag of ESAESA
Related business
Manufacturer
EADS Astrium/DF
Mission
Operational Civil Science
Bus & Motor
FLEXBUS, AOCS 2X40MN
Mass
720 kg wet, ~684 kg dry
Launch date (UTC)
2010-04-08 (15 years ago)
Launch vehicle
DNEPR
Launch site
Tyuratam Missile And Space Complex (TTMTR)
Object type
Payload
Rocket body
Debris
Shape & HBR
Hex Cyl, 2.3 m
Radar Cross Section
9.653 m², Large (>1 m²)

Expand to show TLE details & history
Last TLE update: 14 hours ago

TLE from 14 hours ago
0 CRYOSAT 2
1 36508U 10013A   25260.22733006  .00000231  00000-0  56477-4 0  9994
2 36508  92.0186 211.2483 0002733  93.9080 266.2440 14.51907485818471
Epoch: 2025-09-17T05:27Z
TLE epoch observation values (Epoch: 2025-09-17T05:27:21.317Z)
Latitude
0.00002°
Longitude
133.00317°
Altitude
722.646 km
Speed
7.494 km/s
True Right ascension
14h 04m 59s
True Declination
0° 00' 00"
Sunlit
Object was in daylight at epoch
Visualization orbit readout
Latitude
Unknown
Longitude
Unknown
Altitude
Unknown
Speed
Unknown
Apparent Right ascension
Unknown
Apparent Declination
Unknown
Sunlit
N/A
Visualization observer readout
Local Sidereal Time
12:30:09
Azimuth
Unknown
Elevation
Unknown
Doppler factor
Unknown
Orbital elements
Apogee altitude
718.279 km
Perigee altitude
714.401 km
Semi-major axis
7,094.477 km
Eccentricity
0.00027
Inclination
92.0186°
RAAN
211.2483°
Arg. of periapsis
93.908°
True anomaly
266.21275°
Mean anomaly
266.244°
Eccentric anomaly
266.22837°
Mean motion
3.63214 °/min
Orbital period
99.12 mins
BSTAR
0.000056477
Loading maneuver chart data...
Computing Atmospheric mass density...
Loading historical data...
Loading historical data...
Loading historical data...
Loading historical data...
Loading historical data...
Loading historical data...
Loading historical data...
Other satellites on launch #13 in the year 2010 (2010-04-08 UTC)

Documentation

Showing up to 5 results
|